Weather History for Namest Nad Oslav, Czech Republic

Change the Weather History Date:

Tuesday, February 12, 2013

  Actual Average Record
Temperature  
Mean Temperature 24 °F -  
Max Temperature 28 °F - - ()
Min Temperature 21 °F - - ()
Degree Days  
Heating Degree Days 40    
Moisture  
Dew Point 24 °F    
Average Humidity 97    
Maximum Humidity 100    
Minimum Humidity 93    
Precipitation  
Precipitation 0.00 in - - ()
Sea Level Pressure  
Sea Level Pressure 29.73 in    
Wind  
Wind Speed 10 mph ()    
Max Wind Speed 15 mph    
Max Gust Speed -    
Visibility 1.3 miles    
Events Fog , Snow    
T = Trace of Precipitation, MM = Missing Value Source: Averaged Metar Reports

Daily Weather History Graph

Daily Weather History Graph

Search for Another Location

Airport:

Trip Planner

Search our weather history database for the weather conditions in past years. The results will help you decide how hot, cold, wet, or windy it might be!

Date:

Astronomy

Feb. 12, 2013 Rise Set
Actual Time 7:09 AM CET 5:10 PM CET
Civil Twilight 6:36 AM CET 5:43 PM CET
Nautical Twilight 5:59 AM CET 6:21 PM CET
Astronomical Twilight 5:22 AM CET 6:58 PM CET
Moon 7:40 AM CET (2/12) 8:13 PM CET (2/12)
Length of Visible Light 11h 07m
Length of Day
10h 01m
Waxing Crescent, 6% of the Moon is Illuminated
Feb 12
Waxing Crescent
Feb 17
First Quarter
Feb 25
Full
Mar 4
Last Quarter
Mar 11
New

Hourly Weather History & Observations

Time (CET) Temp. Windchill Dew Point Humidity Pressure Visibility Wind Dir Wind Speed Gust Speed Precip Events Conditions
12:00 AM 23.0 °F 11.7 °F 21.2 °F 93% 29.71 in 4.3 mi ESE 11.5 mph - N/A   Overcast
12:22 AM 23.0 °F 11.1 °F 21.2 °F 93% 29.71 in 1.9 mi ESE 12.7 mph - N/A Snow Light Snow
1:00 AM 23.0 °F 11.1 °F 21.2 °F 93% 29.71 in 1.9 mi ESE 12.7 mph - N/A Snow Light Snow
2:00 AM 21.2 °F 10.1 °F 21.2 °F 100% 29.71 in 1.9 mi ESE 10.4 mph - N/A Snow Light Snow
2:30 AM 21.2 °F 9.5 °F 21.2 °F 100% 29.71 in 1.6 mi ESE 11.5 mph - N/A Snow Light Snow
3:00 AM 21.2 °F 9.5 °F 21.2 °F 100% 29.71 in 1.2 mi ESE 11.5 mph - N/A Snow Light Snow
3:42 AM 21.2 °F 8.3 °F 21.2 °F 100% 29.71 in 1.2 mi ESE 13.8 mph - N/A Snow Light Snow
4:00 AM 21.2 °F 9.5 °F 21.2 °F 100% 29.71 in 1.9 mi ESE 11.5 mph - N/A Snow Low Drifting Snow
4:49 AM 21.2 °F 8.9 °F 21.2 °F 100% 29.71 in 2.2 mi ESE 12.7 mph - N/A Snow Low Drifting Snow
5:00 AM 21.2 °F 9.5 °F 21.2 °F 100% 29.71 in 2.2 mi ESE 11.5 mph - N/A Snow Low Drifting Snow
5:20 AM 23.0 °F 11.1 °F 21.2 °F 93% 29.71 in 1.6 mi ESE 12.7 mph - N/A Snow Light Snow
5:40 AM 23.0 °F 11.7 °F 21.2 °F 93% 29.71 in 1.1 mi ESE 11.5 mph - N/A Snow Snow
6:00 AM 23.0 °F 10.1 °F 21.2 °F 93% 29.68 in 0.7 mi ESE 15.0 mph - N/A Snow Snow
7:00 AM 23.0 °F 10.1 °F 21.2 °F 93% 29.68 in 0.9 mi ESE 15.0 mph - N/A Snow Light Snow
7:39 AM 23.0 °F 10.1 °F 23.0 °F 100% 29.68 in 1.2 mi East 15.0 mph - N/A Snow Light Snow
8:00 AM 23.0 °F 10.6 °F 23.0 °F 100% 29.71 in 1.2 mi East 13.8 mph - N/A Snow Light Snow
9:00 AM 24.8 °F 12.9 °F 23.0 °F 93% 29.71 in 1.2 mi East 13.8 mph - N/A Snow Light Snow
10:00 AM 24.8 °F 14.6 °F 23.0 °F 93% 29.71 in 1.2 mi East 10.4 mph - N/A Snow Light Snow
11:00 AM 24.8 °F 12.9 °F 24.8 °F 100% 29.71 in 1.0 mi ESE 13.8 mph - N/A Snow Light Snow
11:14 AM 24.8 °F 13.4 °F 24.8 °F 100% 29.71 in 0.6 mi ESE 12.7 mph - N/A Snow Light Snow
11:23 AM 24.8 °F 14.0 °F 24.8 °F 100% 29.71 in 0.3 mi East 11.5 mph - N/A Snow Snow
12:00 PM 26.6 °F 16.2 °F 24.8 °F 93% 29.71 in 0.4 mi East 11.5 mph - N/A Snow Snow
12:37 PM 26.6 °F 15.7 °F 24.8 °F 93% 29.71 in 1.0 mi East 12.7 mph - N/A Snow Light Snow
1:00 PM 26.6 °F 16.2 °F 24.8 °F 93% 29.71 in 1.2 mi ESE 11.5 mph - N/A Snow Light Snow
2:00 PM 26.6 °F 16.8 °F 26.6 °F 100% 29.71 in 1.6 mi ESE 10.4 mph - N/A Snow Light Snow
2:29 PM 26.6 °F 15.7 °F 26.6 °F 100% 29.71 in 1.6 mi ESE 12.7 mph - N/A   Overcast
3:00 PM 26.6 °F 16.8 °F 26.6 °F 100% 29.71 in 1.6 mi ESE 10.4 mph - N/A   Overcast
4:00 PM 26.6 °F 17.5 °F 26.6 °F 100% 29.74 in 1.2 mi ESE 9.2 mph - N/A   Overcast
5:00 PM 26.6 °F 19.1 °F 26.6 °F 100% 29.74 in 0.7 mi ESE 6.9 mph - N/A   Overcast
6:00 PM 28.4 °F 22.2 °F 26.6 °F 93% 29.77 in 0.6 mi SE 5.8 mph - N/A Fog Light Freezing Fog
7:00 PM 28.4 °F - 26.6 °F 93% 29.80 in 0.4 mi Variable 2.3 mph - N/A Fog Light Freezing Fog
8:00 PM 28.4 °F - 28.4 °F 100% 29.80 in 0.5 mi Variable 2.3 mph - N/A Fog Light Freezing Rain
9:00 PM 28.4 °F - 28.4 °F 100% 29.80 in 0.9 mi Calm Calm - N/A   Light Freezing Rain
9:46 PM 28.4 °F - 26.6 °F 93% 29.83 in 0.9 mi Calm Calm - N/A   Overcast
10:00 PM 28.4 °F - 28.4 °F 100% 29.83 in 0.9 mi Calm Calm - N/A   Overcast
10:31 PM 28.4 °F - 26.6 °F 93% 29.83 in 0.9 mi Calm Calm - N/A Snow Light Snow
11:00 PM 28.4 °F - 26.6 °F 93% 29.83 in 0.7 mi SW 1.2 mph - N/A Snow Light Snow